Weather History for Goldsboro, NC

Change the Weather History Date:

Saturday, November 30, 2013

  Actual Average (KGSB) Record (KGSB)
Temperature  
Mean Temperature 40 °F -  
Max Temperature 51 °F 60 °F 80 °F (1998)
Min Temperature 31 °F 38 °F 29 °F (2012)
Degree Days  
Heating Degree Days 24    
Moisture  
Dew Point 33 °F    
Average Humidity 77    
Maximum Humidity 95    
Minimum Humidity 59    
Precipitation  
Precipitation 0.00 in - - ()
Sea Level Pressure  
Sea Level Pressure 30.52 in    
Wind  
Wind Speed 8 mph (NNE)    
Max Wind Speed 15 mph    
Max Gust Speed 20 mph    
Visibility 10 miles    
Events      
Averages and records for this station are not official NWS values.
T = Trace of Precipitation, MM = Missing Value Source: NWS Daily Summary

Daily Weather History Graph

Daily Weather History Graph

Search for Another Location

Airport:

Trip Planner

Search our weather history database for the weather conditions in past years. The results will help you decide how hot, cold, wet, or windy it might be!

Date:

Astronomy

Nov. 30, 2013 Rise Set
Actual Time 7:01 AM EST 4:59 PM EST
Civil Twilight 6:34 AM EST 5:27 PM EST
Nautical Twilight 6:02 AM EST 5:58 PM EST
Astronomical Twilight 5:31 AM EST 6:29 PM EST
Moon 4:15 AM EST (11/30) 3:18 PM EST (11/30)
Length of Visible Light 10h 53m
Length of Day
9h 57m
Waning Crescent, 7% of the Moon is Illuminated
Nov 30
Waning Crescent
Dec 2
New
Dec 9
First Quarter
Dec 17
Full
Dec 25
Last Quarter

Hourly Weather History & Observations

Time (EST) Temp. Windchill Dew Point Humidity Pressure Visibility Wind Dir Wind Speed Gust Speed Precip Events Conditions
12:15 AM 33.8 °F 27.0 °F 27.3 °F 77% 30.63 in 10.0 mi NNE 8.1 mph - N/A   Clear
12:35 AM 33.3 °F 25.7 °F 27.5 °F 79% 30.62 in 10.0 mi NNE 9.2 mph - N/A   Clear
12:55 AM 32.7 °F 25.0 °F 27.5 °F 81% 30.62 in 10.0 mi NNE 9.2 mph - N/A   Clear
1:15 AM 32.5 °F 24.8 °F 27.3 °F 81% 30.62 in 10.0 mi NNE 9.2 mph - N/A   Clear
1:35 AM 32.4 °F 24.6 °F 27.3 °F 82% 30.62 in 10.0 mi NNE 9.2 mph - N/A   Clear
1:55 AM 32.0 °F 24.8 °F 27.1 °F 82% 30.62 in 10.0 mi NNE 8.1 mph - N/A   Clear
2:15 AM 32.2 °F 25.0 °F 27.0 °F 81% 30.61 in 10.0 mi NNE 8.1 mph - N/A   Clear
2:35 AM 32.0 °F 24.2 °F 27.0 °F 82% 30.61 in 10.0 mi NNE 9.2 mph - N/A   Clear
2:55 AM 32.0 °F 24.8 °F 27.0 °F 82% 30.61 in 10.0 mi NNE 8.1 mph - N/A   Clear
3:15 AM 32.0 °F 23.6 °F 27.0 °F 82% 30.61 in 10.0 mi NNE 10.4 mph - N/A   Clear
3:35 AM 32.0 °F 23.6 °F 26.8 °F 81% 30.61 in 10.0 mi NNE 10.4 mph - N/A   Clear
3:55 AM 32.0 °F 24.2 °F 26.8 °F 81% 30.60 in 10.0 mi NNE 9.2 mph - N/A   Clear
4:15 AM 32.0 °F 24.2 °F 26.6 °F 80% 30.60 in 10.0 mi NNE 9.2 mph - N/A   Clear
4:35 AM 32.0 °F 24.2 °F 26.6 °F 80% 30.59 in 10.0 mi NNE 9.2 mph - N/A   Clear
4:55 AM 32.0 °F 25.6 °F 26.4 °F 80% 30.60 in 10.0 mi NNE 6.9 mph - N/A   Clear
5:15 AM 31.6 °F 24.4 °F 26.4 °F 81% 30.60 in 10.0 mi NNE 8.1 mph - N/A   Clear
5:35 AM 31.5 °F 24.2 °F 26.4 °F 82% 30.60 in 10.0 mi NNE 8.1 mph - N/A   Clear
5:55 AM 31.3 °F 23.9 °F 26.4 °F 82% 30.60 in 10.0 mi NNE 8.1 mph - N/A   Clear
6:15 AM 31.1 °F 23.7 °F 26.4 °F 83% 30.60 in 10.0 mi NNE 8.1 mph - N/A   Clear
6:35 AM 31.3 °F 23.9 °F 26.4 °F 82% 30.61 in 10.0 mi North 8.1 mph - N/A   Clear
6:55 AM 31.1 °F 24.5 °F 26.2 °F 82% 30.61 in 10.0 mi NNE 6.9 mph - N/A   Clear
7:15 AM 31.1 °F 23.7 °F 26.6 °F 83% 30.61 in 10.0 mi NNE 8.1 mph - N/A   Clear
7:35 AM 31.5 °F 22.9 °F 27.1 °F 84% 30.61 in 10.0 mi NNE 10.4 mph - N/A   Clear
7:55 AM 32.2 °F 24.4 °F 27.5 °F 83% 30.61 in 10.0 mi North 9.2 mph - N/A   Clear
8:15 AM 33.3 °F 25.7 °F 28.2 °F 82% 30.62 in 10.0 mi North 9.2 mph - N/A   Clear
8:35 AM 34.5 °F 25.7 °F 28.6 °F 79% 30.61 in 10.0 mi NNE 12.7 mph - N/A   Clear
8:55 AM 35.6 °F 26.6 °F 29.5 °F 78% 30.61 in 10.0 mi NNE 13.8 mph 18.4 mph N/A   Clear
9:15 AM 36.9 °F 28.7 °F 30.6 °F 78% 30.61 in 10.0 mi NNE 12.7 mph 19.6 mph N/A   Clear
9:35 AM 38.5 °F 30.3 °F 31.6 °F 76% 30.61 in 10.0 mi NNE 13.8 mph - N/A   Clear
9:55 AM 39.4 °F 31.1 °F 32.0 °F 75% 30.61 in 10.0 mi North 15.0 mph - N/A   Clear
10:15 AM 41.0 °F 33.9 °F 32.4 °F 71% 30.61 in 10.0 mi NNE 12.7 mph 18.4 mph N/A   Clear
10:35 AM 42.4 °F 35.7 °F 32.9 °F 69% 30.59 in 10.0 mi North 12.7 mph - N/A   Clear
10:55 AM 43.7 °F 37.7 °F 33.1 °F 66% 30.59 in 10.0 mi North 11.5 mph - N/A   Clear
11:15 AM 44.6 °F 39.2 °F 33.8 °F 66% 30.58 in 10.0 mi NNE 10.4 mph - N/A   Clear
11:35 AM 46.0 °F 40.6 °F 34.3 °F 64% 30.57 in 10.0 mi North 11.5 mph - N/A   Clear
11:55 AM 47.3 °F - 34.9 °F 62% 30.55 in 10.0 mi NE 8.1 mph - N/A   Clear
12:15 PM 48.0 °F - 35.4 °F 62% 30.54 in 10.0 mi NNE 6.9 mph 10.4 mph N/A   Clear
12:35 PM 49.1 °F - 35.8 °F 60% 30.53 in 10.0 mi NE 5.8 mph - N/A   Clear
12:55 PM 49.1 °F - 36.0 °F 61% 30.52 in 10.0 mi North 8.1 mph - N/A   Clear
1:15 PM 49.8 °F - 36.3 °F 60% 30.51 in 10.0 mi North 6.9 mph - N/A   Clear
1:35 PM 50.0 °F - 36.1 °F 59% 30.50 in 10.0 mi North 6.9 mph - N/A   Clear
1:55 PM 50.7 °F - 36.7 °F 59% 30.49 in 10.0 mi NNE 10.4 mph - N/A   Clear
2:15 PM 50.7 °F - 37.0 °F 59% 30.48 in 10.0 mi North 5.8 mph - N/A   Clear
2:35 PM 50.9 °F - 36.9 °F 59% 30.48 in 10.0 mi North 11.5 mph - N/A   Clear
2:55 PM 50.9 °F - 37.2 °F 59% 30.47 in 10.0 mi NNE 10.4 mph - N/A   Clear
3:15 PM 50.9 °F - 37.4 °F 60% 30.47 in 10.0 mi NNE 11.5 mph - N/A   Clear
3:35 PM 50.4 °F - 37.2 °F 61% 30.46 in 10.0 mi NNE 9.2 mph - N/A   Clear
3:55 PM 50.0 °F - 37.0 °F 61% 30.46 in 10.0 mi North 6.9 mph - N/A   Clear
4:15 PM 49.3 °F - 37.4 °F 64% 30.46 in 10.0 mi NNE 8.1 mph - N/A   Clear
4:35 PM 48.4 °F - 37.2 °F 65% 30.45 in 10.0 mi North 5.8 mph - N/A   Clear
4:55 PM 46.0 °F 43.1 °F 36.9 °F 70% 30.45 in 10.0 mi North 5.8 mph - N/A   Clear
5:15 PM 45.3 °F 43.0 °F 36.9 °F 72% 30.45 in 10.0 mi North 4.6 mph - N/A   Clear
5:35 PM 42.8 °F 41.1 °F 36.1 °F 77% 30.45 in 10.0 mi North 3.5 mph - N/A   Clear
5:55 PM 42.4 °F 40.7 °F 36.5 °F 79% 30.44 in 10.0 mi North 3.5 mph - N/A   Clear
6:15 PM 40.6 °F - 36.0 °F 83% 30.43 in 10.0 mi Calm Calm - N/A   Scattered Clouds
6:35 PM 40.1 °F 38.0 °F 36.7 °F 88% 30.43 in 10.0 mi North 3.5 mph - N/A   Scattered Clouds
6:55 PM 40.1 °F - 36.5 °F 87% 30.43 in 10.0 mi Calm Calm - N/A   Scattered Clouds
7:15 PM 39.9 °F - 36.0 °F 86% 30.43 in 10.0 mi Calm Calm - N/A   Mostly Cloudy
7:35 PM 39.6 °F - 36.0 °F 87% 30.42 in 10.0 mi Calm Calm - N/A   Scattered Clouds
7:55 PM 39.0 °F - 36.1 °F 89% 30.42 in 10.0 mi Calm Calm - N/A   Clear
8:15 PM 38.1 °F - 36.1 °F 93% 30.42 in 10.0 mi Calm Calm - N/A   Scattered Clouds
8:35 PM 37.6 °F - 36.1 °F 95% 30.41 in 10.0 mi Calm Calm - N/A   Mostly Cloudy
8:55 PM 37.9 °F - 36.5 °F 95% 30.40 in 10.0 mi Calm Calm - N/A   Mostly Cloudy
9:15 PM 37.8 °F 35.3 °F 36.5 °F 95% 30.40 in 10.0 mi North 3.5 mph - N/A   Overcast
9:35 PM 39.7 °F 35.6 °F 37.6 °F 92% 30.40 in 10.0 mi North 5.8 mph - N/A   Mostly Cloudy
9:55 PM 41.2 °F 36.6 °F 37.0 °F 85% 30.40 in 10.0 mi North 6.9 mph - N/A   Overcast
10:15 PM 41.4 °F 37.6 °F 37.2 °F 85% 30.39 in 10.0 mi NNE 5.8 mph - N/A   Overcast
10:35 PM 41.4 °F 39.4 °F 37.4 °F 86% 30.39 in 10.0 mi North 3.5 mph - N/A   Overcast
10:55 PM 40.8 °F 38.8 °F 36.9 °F 86% 30.39 in 10.0 mi North 3.5 mph - N/A   Mostly Cloudy
11:15 PM 39.0 °F - 35.8 °F 88% 30.38 in 10.0 mi Calm Calm - N/A   Scattered Clouds
11:35 PM 38.5 °F 36.1 °F 35.6 °F 89% 30.37 in 10.0 mi North 3.5 mph - N/A   Clear
11:55 PM 38.5 °F 35.0 °F 36.5 °F 93% 30.36 in 10.0 mi North 4.6 mph - N/A   Scattered Clouds